Date,TemperatureHighF,TemperatureAvgF,TemperatureLowF,DewpointHighF,DewpointAvgF,DewpointLowF,HumidityHigh,HumidityAvg,HumidityLow,PressureMaxIn,PressureMinIn,WindSpeedMaxMPH,WindSpeedAvgMPH,GustSpeedMaxMPH,PrecipitationSumIn
2013-4-1,64,48,38,49,38,14,99,71,34,29.91,29.60,7,2,16,0.12
2013-4-2,46,38,29,20,15,11,64,41,27,30.09,29.91,6,2,19,0.01
2013-4-3,48,39,31,18,15,12,55,38,26,30.31,30.08,5,3,17,0.00
2013-4-4,56,42,27,34,23,16,76,49,28,30.40,30.09,4,1,11,0.00
2013-4-5,63,49,40,33,26,17,70,44,21,30.09,29.72,6,2,20,0.00
2013-4-6,52,43,34,31,18,10,77,39,19,30.32,30.01,5,2,14,0.00
2013-4-7,57,47,34,46,36,28,87,69,42,30.31,30.01,7,2,16,0.00
2013-4-8,74,57,42,47,44,40,96,66,33,30.09,29.98,4,1,12,0.00
2013-4-9,82,66,49,54,46,37,92,55,21,30.01,29.90,5,2,20,0.00
2013-4-10,72,62,53,57,51,41,97,68,35,29.96,29.82,6,2,21,0.58
2013-4-11,63,56,48,58,49,41,98,80,54,30.07,29.79,5,2,11,0.60
2013-4-12,48,44,41,43,40,35,95,84,67,30.06,29.74,9,4,23,0.42
2013-4-13,60,49,40,43,39,34,95,70,42,29.97,29.76,3,1,9,0.08
2013-4-14,57,52,46,40,34,28,76,52,34,30.23,29.97,6,2,17,0.00
2013-4-15,59,50,40,37,33,28,78,54,39,30.39,30.23,4,1,9,0.00
2013-4-16,64,56,45,55,48,37,84,76,64,30.38,30.12,5,1,14,0.00
2013-4-17,69,61,52,57,45,36,91,58,30,30.28,30.12,6,2,13,0.00
2013-4-18,62,54,45,53,44,38,89,72,41,30.36,30.11,4,2,11,0.00
2013-4-19,74,65,56,65,60,53,96,85,68,30.11,29.65,5,2,14,0.13
2013-4-20,65,55,48,63,38,26,96,59,29,30.29,29.66,5,2,16,0.29
2013-4-21,54,45,34,31,24,20,70,46,27,30.62,30.29,4,2,13,0.02
2013-4-22,55,47,38,38,33,24,83,60,31,30.68,30.52,5,2,19,0.00
2013-4-23,53,46,40,43,38,33,88,75,68,30.52,30.13,5,2,12,0.00
2013-4-24,72,55,36,52,46,35,97,74,47,30.13,29.83,4,1,15,0.00
2013-4-25,65,56,46,53,34,23,89,48,22,30.27,29.86,6,2,17,0.00
2013-4-26,65,53,38,42,35,29,95,56,28,30.42,30.27,5,2,12,0.00
2013-4-27,68,57,42,38,32,26,70,41,22,30.44,30.27,4,1,10,0.00
2013-4-28,72,57,41,46,38,-100,89,55,27,30.32,30.21,5,1,16,0.00
2013-4-29,57,55,53,52,48,42,91,77,62,30.25,30.20,2,0,8,0.03
2013-4-30,68,59,46,49,41,29,82,56,25,30.35,30.22,3,1,11,0.01